Location: Highland Meadows Observing Site
(48.4428°N, 114.5461°W)
Time: 07:45:40
(UTC-06:00)

Gurwin Techsat 1B - Visible Passes

Search period start: 27 May 2017 00:00
Search period end: 06 June 2017 00:00
Orbit: 811 x 815 km, 98.6° (Epoch: 26 May)

Date Brightness Start Highest point End Pass type
(mag) Time Alt. Az. Time Alt. Az. Time Alt. Az.
27 May 10.9 02:16:14 10° NE 02:19:11 15° E 02:22:08 10° ESE visible
27 May 8.6 03:54:30 10° NNE 03:59:52 87° WNW 04:04:08 16° SSW visible
28 May 8.9 03:31:43 10° NNE 03:37:01 63° ESE 03:41:04 17° S visible
29 May 9.6 03:09:05 10° NNE 03:14:06 41° E 03:18:01 16° SSE visible
29 May 9.6 04:49:14 10° N 04:53:58 33° WNW 04:58:41 10° SW visible
30 May 10.2 02:46:38 10° NE 02:51:07 27° E 02:54:58 13° SE visible
30 May 9.1 04:26:11 10° N 04:31:19 49° WNW 04:36:10 11° SW visible
31 May 10.7 02:24:31 10° NE 02:28:03 18° E 02:31:34 10° SE visible
31 May 8.7 04:03:15 10° NNE 04:08:35 74° WNW 04:13:07 14° SSW visible
01 Jun 11.0 02:03:27 10° ENE 02:04:54 11° E 02:06:21 10° E visible
01 Jun 8.7 03:40:26 10° NNE 03:45:47 74° ESE 03:50:03 16° S visible
02 Jun 9.3 03:17:44 10° NNE 03:22:53 48° E 03:27:00 16° S visible
03 Jun 9.9 02:55:12 10° NNE 02:59:57 31° E 03:03:55 13° SSE visible
03 Jun 9.3 04:35:00 10° N 04:40:00 42° WNW 04:44:58 10° SW visible
04 Jun 10.5 02:32:55 10° NE 02:36:54 21° E 02:40:51 10° SE visible
04 Jun 8.8 04:12:01 10° N 04:17:17 63° WNW 04:22:04 13° SSW visible
05 Jun 10.9 02:11:14 10° ENE 02:13:46 13° E 02:16:19 10° ESE visible
05 Jun 8.6 03:49:09 10° NNE 03:54:31 86° ESE 03:59:00 15° SSW visible
